STARLINK-35358, 66564

Orbit data source: Space-Track

STARLINK-35358, 66564 is a payload satellite owned by SpaceX/Seattle (US) in LEO that was launched on Fri, 21 Nov 2025 UTC via an FALCON 9 launch vehicle from the Air Force Eastern Test Range (AFETR). Payload-class satellites include a variety of spacecraft equipped with specific instruments for various scientific and technological missions. These include communications satellites like Starlink; space stations such as the ISS; scientific satellites like the Hubble; Earth observation satellites from companies like Planet Labs, Umbra, and HawkEye 360; GPS; miniature CubeSats for education and research; and military/defense satellites.

Loading next visibility...
Identifier
66564, 2025-268H
Orbit
LEO
Country
Flag of USUS
Related business
Manufacturer
SpaceX/Seattle
Mission
Operational Commercial Communications
Bus & Motor
STARLINK V2MO, Unknown motor
Mass
575 kg wet, ~530 kg dry
Launch date (UTC)
2025-11-21 (7 months ago)
Launch vehicle
FALCON 9
Launch site
Air Force Eastern Test Range (AFETR)
Object type
Payload
Rocket body
Debris
Shape & HBR
Box + 2 Pan, 17.7 m
Radar Cross Section
36.964 m², Large (>1 m²)

Expand to show TLE details & history
Last TLE update: 13 hours ago

TLE from 13 hours ago
0 STARLINK-35358
1 66564U 25268H   26171.29481531  .00008671  00000-0  32420-3 0  9996
2 66564  42.9987 127.4501 0001274 265.6086  94.4620 15.27585041 33655
Epoch: 2026-06-20T07:04Z
TLE epoch observation values (Epoch: 2026-06-20T07:04:32.042Z)
Latitude
-0.00004°
Longitude
112.80506°
Altitude
482.877 km
Speed
7.626 km/s
True Right ascension
08h 29m 48s
True Declination
0° 00' 00"
Sunlit
Object was in daylight at epoch
Visualization orbit readout
Latitude
Unknown
Longitude
Unknown
Altitude
Unknown
Speed
Unknown
Apparent Right ascension
Unknown
Apparent Declination
Unknown
Sunlit
N/A
Visualization observer readout
Local Sidereal Time
07:12:46
Azimuth
Unknown
Elevation
Unknown
Doppler factor
Unknown
Orbital elements
Apogee altitude
485.854 km
Perigee altitude
484.105 km
Semi-major axis
6,863.116 km
Eccentricity
0.00013
Inclination
42.9987°
RAAN
127.4501°
Arg. of periapsis
265.6086°
True anomaly
94.47655°
Mean anomaly
94.462°
Eccentric anomaly
94.46928°
Mean motion
3.81734 °/min
Orbital period
94.31 mins
BSTAR
0.0003242
Loading maneuver chart data...
Computing Atmospheric mass density...
Loading historical data...
Loading historical data...
Loading historical data...
Loading historical data...
Loading historical data...
Loading historical data...
Loading historical data...

Documentation

Showing up to 5 results
|